, AK

(GMT )
Aniak

Weather History for PANI - February, 2013

Change the Weather History Date:

Tuesday, February 12, 2013

  Actual Average Record
Temperature  
Mean Temperature 14 °F -  
Max Temperature 28 °F 19 °F 39 °F (2000)
Min Temperature 0 °F 6 °F -41 °F (2008)
Degree Days  
Heating Degree Days 51    
Moisture  
Dew Point 16 °F    
Average Humidity 78    
Maximum Humidity 86    
Minimum Humidity 69    
Precipitation  
Precipitation 0.00 in - - ()
Sea Level Pressure  
Sea Level Pressure 29.59 in    
Wind  
Wind Speed 11 mph (ESE)    
Max Wind Speed 14 mph    
Max Gust Speed 18 mph    
Visibility 10 miles    
Events      
Averages and records for this station are not official NWS values.
T = Trace of Precipitation, MM = Missing Value Source: NWS Daily Summary

Daily Weather History Graph

Daily Weather History Graph

Search for Another Location

Airport or City:

Trip Planner

Search our weather history database for the weather conditions in past years. The results will help you decide how hot, cold, wet, or windy it might be!

Date:

Astronomy

Feb. 12, 2013 Rise Set
Actual Time 9:29 AM AKST 6:16 PM AKST
Civil Twilight 8:42 AM AKST 7:03 PM AKST
Nautical Twilight 7:50 AM AKST 7:55 PM AKST
Astronomical Twilight 7:00 AM AKST 8:45 PM AKST
Moon 9:29 AM AKST (2/12) 10:43 PM AKST (2/12)
Length of Visible Light 10h 21m
Length of Day
8h 47m
Waxing Crescent, 8% of the Moon is Illuminated
Feb 12
Waxing Crescent
Feb 17
First Quarter
Feb 25
Full
Mar 4
Last Quarter
Mar 11
New

Hourly Weather History & Observations

Time (AKST) Temp. Windchill Dew Point Humidity Pressure Visibility Wind Dir Wind Speed Gust Speed Precip Events Conditions
12:16 AM 15.8 °F 1.4 °F 8.6 °F 73% 29.55 in 10.0 mi ESE 13.8 mph - N/A   Clear
12:36 AM 14.0 °F 0.5 °F 8.6 °F 79% 29.56 in 10.0 mi ESE 11.5 mph - N/A   Clear
12:56 AM 12.2 °F 0.7 °F 6.8 °F 79% 29.56 in 10.0 mi ESE 8.1 mph - N/A   Clear
1:16 AM 15.8 °F 3.4 °F 8.6 °F 73% 29.57 in 10.0 mi ESE 10.4 mph - N/A   Scattered Clouds
1:36 AM 15.8 °F 2.1 °F 12.2 °F 86% 29.57 in 10.0 mi East 12.7 mph - N/A   Overcast
1:56 AM 15.8 °F 3.4 °F 10.4 °F 79% 29.57 in 10.0 mi East 10.4 mph - N/A   Overcast
2:16 AM 15.8 °F 2.7 °F 8.6 °F 73% 29.57 in 10.0 mi ESE 11.5 mph - N/A   Mostly Cloudy
2:36 AM 15.8 °F 4.2 °F 10.4 °F 79% 29.57 in 10.0 mi ESE 9.2 mph - N/A   Overcast
2:56 AM 15.8 °F 4.2 °F 8.6 °F 73% 29.57 in 10.0 mi East 9.2 mph - N/A   Overcast
3:16 AM 15.8 °F 4.2 °F 10.4 °F 79% 29.57 in 10.0 mi ESE 9.2 mph - N/A   Mostly Cloudy
3:36 AM 15.8 °F 2.1 °F 12.2 °F 86% 29.57 in 10.0 mi ESE 12.7 mph - N/A   Mostly Cloudy
3:56 AM 17.6 °F 4.3 °F 14.0 °F 86% 29.57 in 10.0 mi ESE 12.7 mph - N/A   Overcast
4:16 AM 15.8 °F 1.4 °F 10.4 °F 79% 29.57 in 10.0 mi ESE 13.8 mph - N/A   Scattered Clouds
4:36 AM 15.8 °F 3.4 °F 10.4 °F 79% 29.57 in 10.0 mi ESE 10.4 mph - N/A   Clear
4:56 AM 15.8 °F 2.1 °F 10.4 °F 79% 29.57 in 10.0 mi ESE 12.7 mph - N/A   Scattered Clouds
5:16 AM 15.8 °F 2.1 °F 10.4 °F 79% 29.57 in 10.0 mi ESE 12.7 mph - N/A   Mostly Cloudy
5:36 AM 17.6 °F 3.7 °F 10.4 °F 73% 29.57 in 10.0 mi ESE 13.8 mph - N/A   Overcast
5:56 AM 17.6 °F 3.7 °F 12.2 °F 79% 29.57 in 10.0 mi ESE 13.8 mph - N/A   Overcast
6:16 AM 17.6 °F 3.7 °F 12.2 °F 79% 29.57 in 10.0 mi ESE 13.8 mph - N/A   Scattered Clouds
6:36 AM 17.6 °F 3.7 °F 10.4 °F 73% 29.57 in 10.0 mi ESE 13.8 mph - N/A   Partly Cloudy
6:56 AM 17.6 °F 3.7 °F 10.4 °F 73% 29.57 in 10.0 mi ESE 13.8 mph - N/A   Partly Cloudy
7:16 AM 17.6 °F 4.3 °F 12.2 °F 79% 29.57 in 10.0 mi ESE 12.7 mph - N/A   Mostly Cloudy
7:36 AM 17.6 °F 3.7 °F 12.2 °F 79% 29.57 in 10.0 mi ESE 13.8 mph - N/A   Mostly Cloudy
7:56 AM 17.6 °F 4.3 °F 12.2 °F 79% 29.56 in 10.0 mi ESE 12.7 mph - N/A   Mostly Cloudy
8:16 AM 17.6 °F 4.3 °F 12.2 °F 79% 29.56 in 10.0 mi ESE 12.7 mph - N/A   Overcast
8:36 AM 19.4 °F 6.0 °F 14.0 °F 80% 29.56 in 10.0 mi ESE 13.8 mph - N/A   Overcast
8:56 AM 19.4 °F 7.2 °F 14.0 °F 80% 29.57 in 10.0 mi ESE 11.5 mph - N/A   Overcast
9:16 AM 19.4 °F 7.9 °F 14.0 °F 80% 29.57 in 10.0 mi ESE 10.4 mph - N/A   Overcast
9:36 AM 19.4 °F 8.6 °F 15.8 °F 86% 29.58 in 10.0 mi ESE 9.2 mph - N/A   Mostly Cloudy
9:56 AM 19.4 °F 8.6 °F 12.2 °F 74% 29.58 in 10.0 mi ESE 9.2 mph - N/A   Overcast
10:16 AM 19.4 °F 8.6 °F 14.0 °F 80% 29.58 in 10.0 mi ESE 9.2 mph - N/A   Overcast
10:36 AM 21.2 °F 10.1 °F 15.8 °F 80% 29.59 in 10.0 mi ESE 10.4 mph - N/A   Overcast
10:56 AM 21.2 °F 8.9 °F 17.6 °F 86% 29.59 in 10.0 mi ESE 12.7 mph - N/A   Overcast
11:16 AM 21.2 °F 8.9 °F 15.8 °F 80% 29.59 in 10.0 mi ESE 12.7 mph - N/A   Overcast
11:36 AM 23.0 °F 11.7 °F 15.8 °F 74% 29.59 in 10.0 mi ESE 11.5 mph - N/A   Overcast
11:56 AM 23.0 °F 11.7 °F 15.8 °F 74% 29.60 in 10.0 mi ESE 11.5 mph - N/A   Overcast
12:16 PM 24.8 °F 15.3 °F 17.6 °F 74% 29.60 in 10.0 mi ESE 9.2 mph - N/A   Overcast
12:36 PM 24.8 °F 13.4 °F 17.6 °F 74% 29.60 in 10.0 mi ESE 12.7 mph - N/A   Overcast
12:56 PM 24.8 °F 14.6 °F 19.4 °F 80% 29.60 in 10.0 mi ESE 10.4 mph - N/A   Overcast
1:16 PM 24.8 °F 14.6 °F 19.4 °F 80% 29.60 in 10.0 mi ESE 10.4 mph - N/A   Overcast
1:36 PM 24.8 °F 15.3 °F 19.4 °F 80% 29.60 in 10.0 mi ESE 9.2 mph - N/A   Overcast
1:56 PM 26.6 °F 16.8 °F 21.2 °F 80% 29.60 in 10.0 mi ESE 10.4 mph - N/A   Overcast
2:16 PM 26.6 °F 18.2 °F 19.4 °F 74% 29.60 in 10.0 mi ESE 8.1 mph - N/A   Overcast
2:36 PM 28.4 °F 19.7 °F 21.2 °F 74% 29.60 in 10.0 mi ESE 9.2 mph - N/A   Overcast
2:56 PM 28.4 °F 20.4 °F 19.4 °F 69% 29.60 in 10.0 mi ESE 8.1 mph - N/A   Mostly Cloudy
3:16 PM 28.4 °F 24.6 °F 19.4 °F 69% 29.61 in 10.0 mi ESE 3.5 mph - N/A   Clear
3:36 PM 26.6 °F 16.8 °F 19.4 °F 74% 29.60 in 10.0 mi ESE 10.4 mph - N/A   Clear
3:56 PM 26.6 °F 17.5 °F 19.4 °F 74% 29.60 in 10.0 mi ESE 9.2 mph - N/A   Clear
4:16 PM 28.4 °F 20.4 °F 23.0 °F 80% 29.59 in 10.0 mi ESE 8.1 mph - N/A   Mostly Cloudy
4:36 PM 28.4 °F 18.5 °F 23.0 °F 80% 29.59 in 10.0 mi ESE 11.5 mph - N/A   Mostly Cloudy
4:56 PM 28.4 °F 17.5 °F 21.2 °F 74% 29.58 in 10.0 mi ESE 13.8 mph 18.4 mph N/A   Partly Cloudy
5:16 PM 26.6 °F 16.8 °F 21.2 °F 80% 29.58 in 10.0 mi ESE 10.4 mph - N/A   Clear
5:36 PM 26.6 °F 16.8 °F 23.0 °F 86% 29.59 in 10.0 mi ESE 10.4 mph - N/A   Clear
5:56 PM 26.6 °F 16.2 °F 19.4 °F 74% 29.59 in 10.0 mi ESE 11.5 mph - N/A   Mostly Cloudy
6:16 PM 24.8 °F 14.0 °F 17.6 °F 74% 29.59 in 10.0 mi ESE 11.5 mph - N/A   Mostly Cloudy
6:36 PM 24.8 °F 14.0 °F 17.6 °F 74% 29.59 in 10.0 mi ESE 11.5 mph - N/A   Mostly Cloudy
6:56 PM 26.6 °F 16.2 °F 19.4 °F 74% 29.58 in 10.0 mi ESE 11.5 mph - N/A   Scattered Clouds
7:16 PM 24.8 °F 14.6 °F 19.4 °F 80% 29.59 in 10.0 mi ESE 10.4 mph - N/A   Scattered Clouds
7:36 PM 26.6 °F 16.8 °F 19.4 °F 74% 29.59 in 10.0 mi ESE 10.4 mph - N/A   Mostly Cloudy
7:56 PM 24.8 °F 15.3 °F 19.4 °F 80% 29.59 in 10.0 mi ESE 9.2 mph - N/A   Overcast
8:16 PM 24.8 °F 14.6 °F 19.4 °F 80% 29.59 in 10.0 mi ESE 10.4 mph - N/A   Overcast
8:36 PM 24.8 °F 14.6 °F 19.4 °F 80% 29.59 in 10.0 mi ESE 10.4 mph - N/A   Mostly Cloudy
8:56 PM 24.8 °F 15.3 °F 17.6 °F 74% 29.59 in 10.0 mi SE 9.2 mph - N/A   Scattered Clouds
9:16 PM 24.8 °F 14.6 °F 17.6 °F 74% 29.59 in 10.0 mi ESE 10.4 mph - N/A   Mostly Cloudy
9:36 PM 24.8 °F 16.1 °F 19.4 °F 80% 29.60 in 10.0 mi SE 8.1 mph - N/A   Overcast
9:56 PM 24.8 °F 17.9 °F 19.4 °F 80% 29.61 in 10.0 mi SSE 5.8 mph - N/A   Mostly Cloudy
10:16 PM 24.8 °F 19.1 °F 19.4 °F 80% 29.62 in 10.0 mi SSW 4.6 mph - N/A   Overcast
10:36 PM 24.8 °F - 21.2 °F 86% 29.63 in 10.0 mi Calm Calm - N/A   Overcast
10:56 PM 23.0 °F - 19.4 °F 86% 29.64 in 10.0 mi Calm Calm - N/A   Overcast
11:16 PM 23.0 °F 18.4 °F 19.4 °F 86% 29.64 in 10.0 mi SSW 3.5 mph - N/A   Overcast
11:36 PM 21.2 °F 16.4 °F 17.6 °F 86% 29.64 in 10.0 mi WSW 3.5 mph - N/A   Overcast
11:56 PM 21.2 °F - 17.6 °F 86% 29.65 in 10.0 mi Calm Calm - N/A   Overcast